Terminal Aerodrome Forecast
Issued by NWS

Home | Current Version | Previous Version | Graphics & Text | Print | Product List | Glossary On
Versions: 1 2 3 4 5 6 7 8 9 10 11 12 13 14 15 16 17 18 19 20 21 22 23 24 25 26 27 28 29 30
000
FTUS45 KGGW 051700
TAFGDV
TAF
KGDV 051720Z 0518/0618 35017KT 6SM FU VCSH BKN040
     FM060000 35013KT P6SM VCSH BKN060
     FM060600 33007KT P6SM BKN060
     FM061500 32006KT P6SM SCT060
      AMD LTD TO CLD VIS AND WIND=

USA.gov is the U.S. government's official web portal to all federal, state and local government web resources and services.